Wind_Speed
3 3 5 6 6 6 5 5 4 1 5 6 4 4 3 3 3 2 3 2 3 6 8 11 14 14 13 9 6 8 12 15 18 20 18 14 12 10 8 6 6 6 7 7 7 3 13 20 20
5 4 3 3 7 10 6 4 3 2 4 4 5 5 4 2 4 6 6 4 3 4 6 9 12 13 12 9 6 8 10 13 17 20 19 15 12 10 8 8 7 7 7 5 4 2 3 14 21
6 5 3 1 4 11 8 3 2 4 3 3 3 4 4 3 2 7 9 9 6 4 4 7 11 12 11 10 7 7 10 12 16 19 20 17 13 11 10 10 9 9 7 5 4 2 4 9 19
9 6 2 3 2 6 7 4 2 4 7 8 7 5 4 4 4 6 8 9 8 7 4 5 9 10 10 9 8 6 8 11 15 18 20 19 15 12 9 8 10 10 9 6 4 2 3 4 10
11 7 5 3 5 2 3 3 2 2 7 9 7 7 5 3 5 7 8 9 9 8 6 3 5 7 9 9 8 6 6 8 13 17 19 20 16 12 9 7 8 10 10 7 5 5 5 2 3
13 8 3 6 4 4 2 3 4 6 6 8 7 5 5 4 4 6 8 9 10 10 8 5 3 5 7 8 7 6 5 7 10 14 17 18 15 11 9 8 9 10 11 8 6 5 5 3 3
15 13 11 8 4 4 3 4 6 6 6 8 7 6 5 3 4 6 7 8 10 11 10 7 4 3 5 7 6 5 4 4 7 10 15 17 16 13 11 10 11 11 11 10 8 6 5 3 3
15 13 12 9 2 3 2 3 3 6 8 9 9 7 6 5 5 6 6 6 9 12 12 9 6 5 4 5 6 5 4 4 4 7 12 16 16 14 13 11 11 11 12 12 10 9 8 7 8
14 13 13 9 3 3 5 4 4 5 6 9 10 8 6 6 6 6 6 6 8 11 13 12 9 6 5 5 7 8 6 5 5 6 8 12 15 13 11 11 12 11 11 11 11 10 10 11 11
15 15 15 10 7 6 7 7 7 9 5 6 8 10 8 7 7 7 6 7 9 12 13 13 11 9 8 8 9 10 8 6 7 7 8 9 12 13 11 9 12 13 12 11 10 11 11 13 15
16 17 14 13 14 10 8 9 9 11 12 8 8 9 9 8 7 8 9 7 11 14 13 13 12 11 10 10 11 12 12 9 9 8 8 8 11 14 13 11 11 14 15 13 9 10 12 14 18
18 18 17 20 18 14 13 10 9 12 16 14 10 11 13 11 8 8 9 9 9 13 13 13 13 13 12 12 12 13 14 12 11 10 10 9 11 14 15 14 11 13 16 14 10 10 13 14 15
18 20 20 22 21 22 20 18 14 18 20 20 17 13 12 12 11 10 11 12 10 12 14 14 14 14 14 14 14 15 16 15 14 13 12 11 11 13 14 13 12 12 15 15 12 11 14 14 13
23 25 27 26 23 23 22 21 19 24 25 25 23 20 15 14 11 9 10 14 16 16 17 18 17 17 17 16 16 17 18 16 16 15 14 12 11 12 15 16 15 14 14 15 14 12 15 16 15
28 29 30 28 28 27 26 23 23 25 28 29 28 26 22 18 14 11 10 12 16 17 18 18 19 19 18 17 16 17 19 18 17 16 15 12 11 12 15 15 17 19 17 14 13 12 13 19 19
33 33 33 32 31 31 31 29 29 29 31 31 33 33 30 23 17 13 10 11 13 14 16 17 17 16 15 14 15 17 19 18 17 16 15 14 13 13 14 14 20 23 19 14 14 15 13 16 21
33 34 36 37 35 35 37 35 36 37 36 36 36 39 37 30 20 15 12 12 14 14 14 17 19 17 16 15 16 17 19 19 17 15 16 16 17 16 14 14 21 24 23 18 14 13 16 16 20
34 36 40 41 40 40 41 41 41 43 41 40 40 41 38 37 28 20 17 15 17 18 17 18 20 20 19 18 17 18 18 17 16 14 15 15 15 15 15 20 22 24 24 23 21 17 16 19 20
34 38 41 42 42 42 42 41 41 43 43 41 40 39 38 40 38 27 21 18 20 19 19 18 20 18 18 18 18 19 17 16 15 15 13 14 16 19 22 26 25 24 25 26 24 20 16 19 22
36 38 41 42 43 43 41 38 38 39 38 36 35 34 33 25 28 25 20 19 21 20 20 18 20 20 21 21 23 20 17 13 12 13 14 15 18 21 25 27 25 24 25 26 25 24 20 20 23
35 38 41 43 44 43 41 36 34 35 36 36 34 33 38 32 28 30 24 18 20 22 24 20 22 23 23 22 22 22 16 11 12 15 17 20 23 25 26 27 26 25 24 25 27 26 23 22 24
27 33 39 43 45 44 42 40 31 31 33 34 32 31 32 30 29 31 28 29 27 24 26 23 21 21 22 23 22 18 13 12 14 18 21 22 24 25 26 25 24 23 22 24 26 27 23 23 26
28 28 27 29 33 37 39 40 33 34 33 32 29 26 23 27 30 36 35 36 31 28 27 24 20 20 22 23 22 20 17 16 17 20 24 27 27 26 23 22 23 22 22 24 25 26 23 22 28
32 31 26 24 26 25 27 30 32 35 32 29 29 27 28 26 28 35 37 32 27 29 28 20 23 27 25 22 19 16 15 19 21 22 24 26 27 24 23 23 24 24 24 24 24 22 24 24 29
35 31 31 28 24 20 19 20 24 28 29 26 26 28 31 26 15 19 29 35 34 34 31 22 27 28 23 15 14 15 16 20 22 24 25 24 26 26 26 24 24 23 22 23 20 19 22 26 29
39 31 33 31 27 25 20 18 20 19 19 19 17 20 19 18 22 25 32 35 31 28 36 31 24 20 14 13 14 15 18 21 21 23 24 24 26 27 27 25 24 24 22 20 17 17 19 21 24
43 36 34 34 33 29 25 25 25 19 18 17 14 17 23 20 19 23 27 34 35 28 28 27 22 10 8 10 14 17 19 20 22 26 27 26 27 26 24 24 24 24 22 20 14 15 18 17 19
50 42 33 31 30 23 17 15 18 20 18 21 16 17 21 18 16 21 29 23 20 24 31 27 17 13 11 13 16 18 19 19 22 26 27 26 27 26 24 23 24 24 22 20 14 12 15 19 19
31 31 28 28 30 23 17 16 17 20 21 26 20 17 19 21 18 24 25 17 9 11 20 21 13 10 11 16 18 21 23 23 26 28 26 26 27 25 24 23 23 21 21 18 13 12 13 16 17
13 14 22 25 29 22 15 13 16 18 14 20 22 18 16 9 4 5 9 4 6 3 3 5 8 10 16 22 25 26 25 24 26 26 24 25 27 26 23 22 22 20 20 17 15 12 12 12 13
Wind_Direction
174 194 214 212 192 207 214 212 204 190 59 38 12 318 304 281 262 252 306 54 26 16 15 18 20 20 20 29 44 34 29 28 24 18 17 18 21 18 12 20 23 1 350 355 346 287 221 220 222
188 175 169 199 196 203 206 214 249 264 64 34 17 2 358 321 254 231 259 283 297 336 4 13 19 20 23 28 31 28 24 24 21 18 18 18 18 13 2 2 2 354 346 1 358 309 234 225 224
187 165 136 40 152 169 163 157 334 323 13 19 12 10 4 23 283 240 246 259 264 281 327 3 19 23 26 25 22 18 18 22 20 18 17 20 21 13 1 354 355 351 343 344 7 284 256 236 223
188 177 125 44 79 145 132 124 137 30 3 0 2 2 347 342 301 267 251 248 241 247 276 347 15 21 24 19 13 4 10 19 20 16 17 21 24 20 7 349 346 345 337 331 342 12 311 250 219
206 205 242 310 17 356 144 101 360 28 3 352 347 352 2 342 281 256 245 238 232 237 247 295 5 20 23 13 0 357 2 19 19 15 15 18 21 18 7 351 334 334 335 330 326 334 341 331 215
218 197 192 223 278 322 90 99 355 343 349 337 318 320 345 5 310 264 245 234 232 232 234 252 331 16 26 12 351 342 351 18 19 13 14 15 16 11 0 343 330 326 326 330 322 313 314 306 197
216 205 195 205 249 312 10 53 38 336 335 336 327 315 324 334 296 265 252 240 238 234 235 251 275 337 14 10 356 337 332 2 17 18 23 19 16 5 356 339 327 326 319 319 313 295 287 285 216
215 219 224 220 180 321 330 327 2 335 344 342 337 338 331 337 311 284 264 241 237 233 234 246 262 288 332 354 356 342 321 326 355 14 23 25 20 8 359 350 336 329 323 312 303 285 258 236 213
222 227 232 250 304 313 264 261 274 291 339 347 341 342 334 343 338 311 285 258 246 239 233 239 247 256 280 309 334 346 332 319 322 354 2 20 25 16 6 -0 356 343 328 317 304 282 262 238 226
227 231 233 238 251 275 273 279 274 281 307 343 335 325 325 320 335 353 330 275 248 239 235 237 239 245 263 283 298 313 325 315 312 332 351 6 20 18 9 358 356 351 336 318 305 288 267 242 234
234 240 242 241 257 271 273 279 286 290 294 305 313 310 310 314 336 341 338 304 253 245 242 233 229 238 252 272 284 291 301 306 303 312 328 358 13 14 8 353 341 346 346 333 317 283 266 248 237
241 246 251 250 247 265 274 262 273 286 288 291 296 300 310 318 324 324 318 307 273 252 241 237 236 243 258 274 283 285 288 295 296 306 316 336 360 4 5 356 341 342 341 337 324 280 267 259 249
248 248 258 267 262 261 270 273 276 276 278 286 292 291 299 306 309 312 300 292 275 246 236 234 239 250 261 272 281 284 283 283 288 298 305 322 344 349 351 351 347 343 340 334 319 287 271 264 253
252 255 256 259 263 262 262 270 274 278 286 286 284 285 288 286 291 290 283 279 266 247 238 239 244 252 259 268 275 278 279 280 281 285 295 307 326 334 339 341 350 347 343 335 327 296 271 265 256
255 256 260 263 268 270 266 265 272 280 283 283 279 276 274 271 278 285 274 267 261 256 251 249 257 263 268 272 274 276 277 277 274 279 288 292 306 317 323 328 340 336 336 334 324 298 272 263 257
259 260 262 264 266 267 268 268 268 272 279 279 279 277 269 263 266 269 270 272 271 270 267 260 260 262 265 271 274 276 277 275 271 277 286 285 291 294 295 312 329 324 318 322 319 303 277 257 257
262 265 266 265 265 265 266 266 267 272 277 280 278 283 275 254 251 256 257 264 274 271 264 263 266 267 269 271 275 275 275 276 276 283 285 289 296 289 280 310 316 306 307 309 300 287 276 261 255
267 266 265 265 265 264 265 268 271 274 275 280 282 282 273 260 247 248 253 260 270 271 270 271 272 271 267 269 270 271 273 279 286 290 287 292 301 294 277 300 300 295 294 297 293 279 262 261 255
269 268 268 267 268 268 267 266 268 271 274 277 280 281 269 253 251 244 244 258 267 266 269 276 282 274 267 263 267 276 281 293 298 298 295 297 303 302 291 295 298 290 284 284 282 272 258 252 253
270 269 268 267 269 269 268 267 268 268 270 273 274 269 267 247 239 255 257 257 265 266 270 269 272 268 265 268 276 280 284 290 296 298 298 298 299 297 290 289 288 282 277 279 282 279 268 247 248
274 270 268 267 267 268 268 267 267 269 271 273 276 268 262 269 251 263 266 257 259 263 267 268 270 272 274 277 283 284 283 287 292 299 305 304 303 301 292 289 288 285 283 278 274 272 263 246 241
282 276 269 266 265 265 265 262 257 260 266 269 276 276 274 257 249 262 258 248 243 253 263 264 263 269 273 278 279 278 284 294 302 307 306 303 301 299 297 296 293 290 288 279 271 268 264 246 238
302 295 284 271 269 268 264 261 255 253 257 260 264 271 269 245 250 261 263 257 237 246 248 252 258 266 270 272 277 285 294 303 306 308 309 308 306 302 296 296 291 292 290 280 268 261 263 253 243
301 301 292 273 275 277 267 262 256 251 249 249 250 254 259 251 249 256 256 244 232 256 250 239 261 266 267 268 274 279 293 303 307 309 307 305 303 296 293 295 293 294 291 279 272 263 256 251 248
299 299 294 283 275 277 262 251 250 247 246 245 247 243 239 245 245 237 234 233 229 239 240 234 252 257 261 258 266 279 294 302 303 301 299 300 297 291 289 289 289 288 284 278 275 262 249 243 239
294 289 282 279 271 269 266 248 228 228 231 233 246 244 229 227 235 231 228 230 228 239 237 235 234 242 243 258 274 288 294 294 295 292 291 289 289 292 294 293 292 288 284 279 277 256 243 240 239
290 281 274 271 269 272 269 254 234 219 217 221 232 225 207 216 217 225 232 235 229 240 240 230 240 243 270 289 290 287 288 290 287 284 282 283 286 293 294 289 287 284 281 281 280 248 241 245 249
282 278 265 258 262 265 254 250 252 247 242 245 237 229 215 223 218 225 240 222 191 228 224 231 242 263 281 284 283 283 284 284 285 286 286 286 286 289 292 289 282 276 272 272 270 247 244 249 253
273 263 248 242 245 245 256 263 243 232 240 240 229 227 231 228 230 227 233 249 225 220 225 232 256 277 280 278 273 277 282 283 281 281 280 277 277 282 285 284 280 275 271 265 262 251 244 241 246
279 260 239 238 232 237 241 272 247 242 231 223 222 236 240 262 344 281 259 293 20 22 316 280 312 291 276 276 276 275 276 283 284 286 285 279 275 273 270 273 275 271 266 262 255 250 247 249 250
Height
5900 5900 5900 5901 5903 5902 5901 5902 5901 5901 5902 5901 5900 5899 5900 5901 5901 5902 5899 5898 5898 5898 5898 5897 5896 5895 5894 5893 5892 5892 5891 5890 5887 5886 5884 5883 5882 5881 5879 5879 5878 5877 5876 5876 5874 5873 5873 5876 5879
5901 5900 5900 5900 5901 5902 5901 5901 5902 5902 5904 5901 5900 5899 5899 5900 5900 5900 5898 5899 5899 5899 5899 5898 5897 5895 5894 5893 5893 5893 5892 5890 5889 5887 5885 5883 5882 5881 5880 5879 5878 5877 5877 5876 5875 5873 5873 5874 5877
5900 5900 5901 5900 5899 5900 5900 5901 5902 5901 5902 5901 5900 5899 5900 5900 5900 5899 5899 5900 5899 5899 5900 5899 5898 5896 5895 5894 5893 5893 5892 5891 5890 5888 5886 5884 5882 5882 5881 5880 5879 5878 5877 5876 5876 5874 5873 5873 5874
5900 5901 5901 5901 5901 5900 5899 5901 5901 5902 5900 5899 5899 5899 5899 5899 5899 5898 5898 5899 5899 5900 5900 5900 5899 5897 5895 5894 5894 5893 5892 5892 5891 5889 5886 5884 5882 5881 5881 5880 5879 5878 5876 5875 5875 5875 5874 5872 5872
5901 5900 5899 5899 5900 5901 5899 5900 5901 5902 5902 5900 5898 5897 5899 5900 5898 5896 5896 5897 5898 5898 5899 5899 5899 5897 5896 5895 5894 5893 5892 5892 5891 5889 5887 5884 5883 5881 5880 5880 5879 5877 5876 5875 5874 5874 5874 5872 5872
5901 5900 5899 5899 5901 5902 5901 5900 5900 5902 5903 5901 5898 5897 5897 5898 5896 5894 5895 5896 5896 5897 5898 5899 5898 5897 5897 5896 5895 5894 5893 5892 5891 5889 5887 5884 5883 5882 5880 5879 5878 5878 5876 5875 5874 5874 5874 5873 5874
5898 5900 5900 5901 5902 5903 5903 5900 5899 5900 5903 5901 5898 5897 5896 5897 5896 5894 5894 5895 5895 5896 5897 5898 5898 5897 5897 5896 5895 5895 5894 5893 5892 5890 5887 5885 5883 5881 5880 5879 5878 5877 5876 5875 5874 5874 5874 5874 5875
5896 5899 5899 5900 5900 5903 5904 5902 5901 5900 5901 5900 5898 5896 5895 5897 5897 5895 5895 5895 5895 5896 5896 5896 5897 5897 5897 5896 5896 5895 5894 5893 5892 5889 5888 5886 5884 5882 5880 5878 5877 5877 5876 5874 5874 5873 5874 5875 5876
5897 5900 5899 5900 5900 5902 5902 5900 5900 5899 5899 5898 5897 5896 5895 5896 5896 5895 5894 5894 5894 5893 5894 5895 5896 5896 5896 5896 5895 5895 5894 5893 5891 5889 5887 5885 5884 5882 5880 5878 5876 5875 5875 5873 5872 5871 5872 5874 5875
5897 5897 5897 5899 5899 5899 5899 5899 5900 5899 5897 5897 5896 5895 5894 5894 5894 5893 5892 5892 5892 5891 5891 5892 5894 5895 5895 5895 5895 5894 5893 5892 5890 5888 5886 5884 5883 5881 5879 5877 5875 5873 5872 5872 5871 5870 5870 5872 5873
5895 5895 5897 5897 5897 5896 5895 5896 5895 5896 5894 5896 5895 5894 5893 5892 5892 5891 5891 5891 5891 5890 5890 5891 5891 5892 5893 5893 5893 5892 5891 5890 5888 5886 5884 5882 5881 5880 5878 5876 5875 5873 5870 5869 5868 5868 5867 5868 5869
5893 5893 5894 5894 5894 5893 5894 5893 5893 5893 5892 5890 5892 5891 5889 5889 5890 5890 5890 5890 5889 5888 5889 5890 5889 5890 5890 5891 5890 5890 5889 5888 5886 5884 5882 5881 5880 5878 5877 5875 5873 5872 5869 5866 5865 5863 5863 5864 5866
5891 5892 5892 5892 5895 5894 5895 5892 5890 5891 5888 5887 5886 5887 5887 5886 5887 5888 5888 5888 5888 5887 5887 5888 5888 5888 5888 5889 5888 5887 5886 5885 5883 5882 5880 5879 5878 5877 5875 5874 5871 5870 5867 5864 5864 5862 5860 5861 5863
5889 5889 5888 5889 5891 5892 5891 5887 5887 5886 5887 5886 5885 5884 5884 5883 5883 5886 5886 5886 5886 5886 5885 5884 5884 5885 5885 5885 5884 5883 5882 5881 5880 5879 5878 5877 5876 5874 5872 5870 5868 5867 5866 5862 5860 5860 5858 5858 5858
5885 5885 5885 5885 5885 5883 5883 5883 5882 5883 5883 5881 5880 5880 5879 5879 5879 5882 5884 5884 5883 5882 5882 5881 5880 5881 5881 5881 5880 5879 5878 5877 5876 5875 5874 5874 5873 5871 5869 5867 5867 5865 5863 5860 5857 5854 5857 5856 5855
5877 5879 5879 5880 5879 5878 5877 5878 5877 5878 5877 5877 5875 5875 5874 5873 5875 5878 5879 5879 5878 5879 5878 5878 5877 5877 5877 5877 5877 5875 5874 5873 5872 5871 5871 5870 5868 5867 5866 5864 5864 5863 5860 5856 5855 5851 5850 5853 5853
5872 5872 5870 5870 5871 5870 5869 5871 5872 5871 5872 5872 5871 5870 5870 5868 5869 5871 5874 5874 5873 5875 5876 5875 5875 5874 5874 5873 5872 5871 5870 5869 5869 5868 5867 5866 5864 5862 5861 5860 5859 5858 5854 5853 5853 5850 5847 5847 5848
5865 5862 5860 5860 5862 5863 5863 5864 5865 5864 5864 5865 5864 5861 5863 5863 5862 5864 5867 5869 5870 5869 5870 5871 5871 5870 5870 5869 5869 5869 5867 5865 5864 5863 5862 5862 5860 5858 5856 5855 5855 5854 5850 5848 5848 5846 5843 5842 5842
5855 5853 5851 5852 5852 5852 5853 5855 5857 5855 5855 5857 5856 5855 5855 5856 5855 5855 5858 5861 5863 5864 5864 5864 5865 5866 5865 5865 5865 5865 5863 5861 5861 5859 5858 5857 5856 5854 5852 5850 5849 5848 5846 5844 5842 5841 5840 5838 5837
5844 5842 5839 5840 5839 5838 5840 5844 5845 5845 5846 5847 5848 5848 5849 5851 5853 5851 5851 5854 5855 5857 5858 5858 5858 5860 5859 5859 5858 5859 5858 5856 5855 5853 5852 5851 5849 5847 5845 5843 5841 5840 5838 5837 5836 5835 5836 5834 5834
5836 5833 5830 5829 5827 5826 5828 5833 5834 5833 5835 5836 5838 5839 5842 5845 5847 5846 5845 5846 5849 5851 5851 5851 5850 5852 5852 5853 5854 5854 5853 5852 5851 5849 5847 5845 5842 5841 5839 5837 5834 5833 5833 5831 5829 5828 5829 5830 5830
5828 5823 5819 5816 5816 5815 5817 5819 5827 5826 5825 5825 5825 5826 5827 5830 5835 5838 5838 5840 5843 5845 5844 5844 5844 5845 5846 5847 5849 5849 5847 5847 5845 5843 5840 5838 5837 5835 5833 5831 5828 5826 5824 5822 5821 5822 5822 5823 5825
5817 5813 5810 5807 5806 5805 5805 5808 5817 5815 5814 5815 5818 5818 5820 5820 5824 5829 5829 5832 5836 5837 5835 5835 5835 5837 5840 5842 5843 5844 5843 5841 5838 5835 5833 5832 5829 5827 5826 5824 5822 5818 5817 5815 5813 5814 5816 5817 5819
5808 5804 5803 5801 5799 5799 5797 5800 5803 5800 5801 5804 5807 5810 5813 5816 5820 5821 5823 5827 5827 5830 5831 5828 5826 5829 5834 5836 5837 5838 5838 5835 5832 5830 5828 5826 5824 5822 5820 5817 5815 5813 5811 5808 5808 5808 5808 5809 5812
5799 5797 5794 5794 5794 5793 5791 5791 5791 5792 5795 5798 5802 5804 5805 5811 5814 5813 5817 5822 5819 5820 5825 5820 5820 5823 5826 5828 5830 5831 5830 5828 5825 5824 5822 5818 5815 5814 5812 5809 5807 5805 5804 5802 5801 5802 5800 5801 5805
5790 5792 5789 5786 5787 5788 5787 5787 5787 5788 5790 5793 5797 5800 5803 5803 5806 5807 5808 5809 5811 5811 5814 5811 5817 5819 5822 5823 5824 5824 5824 5821 5818 5817 5814 5809 5807 5806 5805 5804 5802 5800 5799 5797 5796 5794 5793 5794 5798
5775 5778 5780 5780 5779 5780 5781 5781 5784 5784 5787 5789 5792 5795 5798 5798 5801 5804 5805 5805 5800 5803 5806 5808 5814 5817 5820 5820 5820 5817 5815 5813 5812 5810 5805 5802 5802 5801 5798 5796 5795 5795 5794 5792 5791 5788 5788 5790 5793
5758 5761 5768 5771 5771 5773 5775 5777 5780 5781 5783 5785 5786 5788 5789 5790 5793 5796 5797 5795 5790 5796 5798 5803 5809 5813 5814 5815 5813 5811 5809 5808 5805 5803 5799 5796 5796 5795 5793 5791 5791 5790 5789 5788 5787 5786 5785 5786 5787
5746 5747 5753 5759 5763 5766 5769 5775 5774 5775 5777 5777 5780 5784 5784 5784 5788 5791 5790 5793 5791 5793 5799 5805 5810 5810 5810 5808 5806 5806 5804 5801 5798 5795 5791 5789 5789 5787 5787 5785 5785 5785 5785 5784 5784 5783 5782 5783 5784
5738 5739 5744 5749 5754 5760 5766 5772 5770 5771 5773 5774 5775 5778 5782 5783 5779 5781 5786 5790 5794 5797 5801 5804 5805 5806 5805 5802 5800 5799 5796 5790 5787 5786 5786 5784 5781 5779 5779 5779 5778 5778 5779 5779 5780 5780 5780 5781 5782